Tracking 35275 objects as of 8-Sep-2026
HD Live streaming from Space Station
objects crossing your sky now

PEGASUS DEB


PEGASUS DEB is no longer on orbit


NORAD ID: 24167
Int'l Code: 1994-029HS
Launch date: May 19, 1994
Source: United States (US)
Launch site: AIR FORCE WESTERN TEST RANGE (AFWTR)
Decay date: 1997-11-23

Note: This is SATELLITE DEBRIS
Your satellite tracking list
Your tracking list is empty




NASA's NSSDC Master Catalog

Two Line Element Set (TLE):
1 24167U 94029HS  97326.35607342 +.03293653 +97298-2 +12936-1 0  9991
2 24167 082.2198 025.8962 0037324 243.6048 116.3055 15.88149885188421
Source of the keplerian elements: AFSPC